Portada
METAR-TAF:

METAR-TAF

Aeroports :

Hagi, Japó

latitud: 34-40N, longitud: 131-48E, altitud: 54 m

Observació

L'informe es va fer fa 11 hores i 39 minuts, a les 10:00 UTC
Vent 5 kt del Sud/Sud-Est
Temperatura 6°C
Humitat 81%
Pressió 1021 hPa
Visibilitat 10 km o més
Escasses núvols a una alçada de 3500 ft
Núvols disperses a una alçada de 5000 ft

METAR: RJOW 141000Z 16005KT 9999 FEW035 SCT050 06/03 Q1021

Hora: 06:39 (21:39 UTC)


TAF: manca

Observacions i pronòstics meteorològics de més de 4000 aeroports (METAR i TAF).

Les estacions disponibles són els punts grocs i vermells al mapa.

Posi el ratolí al punt desitjat per veure el nom de l'estació.

Feu clic per veure les observacions i els pronòstics meteorològics.

Per canviar el mapa: feu clic els botons verds amb una creu de color negre per apropar; al botó verd amb un guió per allunyar la imatge; o en les fletxes verdes per a mapes adjacents.


METAR-TAF: